Find Starlink 4193

NORAD ID: 52875 Int'l Des: 2022-062 Owner: SPXS Country: US Constellation: starlink operational
LEOCIRCULAR

当前视图

正在加载3D地球...

About Starlink 4193

Starlink 4193 (NORAD 52875) is a starlink constellation satellite (v1.5) launched Jun 17, 2022 by SPXS of US. It operates in LEO, CIRCULAR orbit with a mass of 297.00 kg.

关于 Starlink 4193

正在加载描述...

即将过境

Passes for default location (London). Set your location on the main map for personalized predictions.

高度历史

Loading altitude history...

两行轨道根数

1 52875U 22062AX 26176.33335648 .00055642 00000-0 25658-2 0 9996
2 52875 53.1608 250.3308 0001231 119.7489 134.9136 15.19742140 5814
Epoch: Jun 25, 2026 • Age: 10 hours

当前状态

高度 508.5 km
速度 7.61 km/s
星下点 -3.82°S, 63.02°E
发射日期 Jun 17, 2022
运行时间 4 years
类型 internet

技术详情

分类 Payload
质量 297.00 kg
干质量 275.00 kg
总质量 297.00 kg
长度 0.20 m
直径 2.80 m
跨度 9.00 m
形状 Box + pan
制造商 SPXS
平台类型 Starlink
阶段状态 In Orbit
所有者/国家 SPXS/US

Most Searched